Flag for United Kingdom Weather past 2 weeks in Cardiff, Wales, United Kingdom

Now
55 °F

Passing clouds.


Feels Like: 52 °F
Forecast: 39 / 53 °F
Wind: 13 mph from Southeast

Location: Wales Airport


UV Index: 3 (Moderate)

Visibility: N/A


Pressure: 30.15 "Hg

Humidity: 55%

Dew point: 39 °F

Location of CardiffLocation

Historic Weather in Cardiff

°F

Cardiff temperature yesterday

Maximum temperature yesterday: 54 °F (at 11:20 AM)
Minimum temperature yesterday: 39 °F (at 6:20 AM)
Average temperature yesterday: 48 °F

Past Weeks' High & Low Weather Summary

 TemperatureHumidityPressure
High59 °F (Apr 15, 2:50 PM)100% (Apr 3, 4:50 PM)30.42 "Hg (Apr 3, 4:50 PM)
Low39 °F (Apr 11, 5:50 AM)42% (Apr 15, 3:50 PM)29.53 "Hg (Apr 3, 1:20 PM)
Average49 °F85%30.08 "Hg
* Reported Apr 3 1:20 PM — Apr 18 1:20 PM, Cardiff, Weather by CustomWeather, © 2014

Note: Actual official high and low records may vary slightly from our data, if they occured in-between our weather recording intervals... More about our weather records

Advertising

Historic Weather Conditions — Data for Previous 24 hours

 ConditionsComfort  
Time TempWeatherWind HumidityBarometerVisibility
1:20 PM
Apr 18
54 °FPassing clouds.12 mph58%30.18 "HgN/A
12:50 PM54 °FPassing clouds.12 mph58%30.18 "HgN/A
12:20 PM54 °FPassing clouds.9 mph58%30.18 "HgN/A
11:50 AM52 °FPassing clouds.10 mph58%30.18 "HgN/A
11:20 AM52 °FPassing clouds.9 mph62%30.18 "HgN/A
10:50 AM52 °FScattered clouds.13 mph62%30.18 "HgN/A
10:20 AM50 °FPassing clouds.13 mph67%30.18 "HgN/A
9:50 AM50 °FPassing clouds.13 mph67%30.18 "HgN/A
9:20 AM48 °FPassing clouds.13 mph71%30.18 "HgN/A
8:50 AM48 °FPassing clouds.12 mph71%30.18 "HgN/A
8:20 AM46 °FSunny.9 mph76%30.18 "Hg10 mi
7:50 AM45 °FSunny.9 mph81%30.15 "Hg10 mi
7:20 AM45 °FSunny.9 mph81%30.15 "Hg10 mi
6:50 AM41 °FClear.6 mph93%30.15 "Hg10 mi
6:20 AM41 °FPassing clouds.6 mph93%30.12 "HgN/A
5:50 AM43 °FClear.5 mph93%30.12 "Hg10 mi
5:20 AM41 °FQuite cool.6 mph93%30.12 "HgN/A
4:50 AM41 °FQuite cool.7 mph93%30.12 "HgN/A
4:20 AM43 °FQuite cool.6 mph93%30.12 "HgN/A
3:50 AM43 °FQuite cool.6 mph93%30.12 "HgN/A
3:20 AM43 °FQuite cool.9 mph93%30.12 "HgN/A
2:50 AM45 °FClear.10 mph93%30.12 "Hg10 mi
2:20 AM45 °FClear.9 mph87%30.12 "Hg10 mi
1:50 AM45 °FQuite cool.8 mph93%30.12 "HgN/A
1:20 AM45 °FQuite cool.6 mph87%30.12 "HgN/A
12:50 AM45 °FPassing clouds.9 mph87%30.15 "HgN/A
12:20 AM45 °FClear.5 mph87%30.15 "Hg10 mi
11:50 PM
Apr 17
45 °FPassing clouds.6 mph87%30.15 "HgN/A
11:20 PM46 °FPassing clouds.6 mph82%30.15 "HgN/A
10:50 PM46 °FPassing clouds.6 mph82%30.15 "HgN/A
10:20 PM48 °FPassing clouds.6 mph82%30.15 "HgN/A
9:50 PM48 °FPassing clouds.3 mph82%30.15 "HgN/A
9:20 PM48 °FPassing clouds.7 mph82%30.12 "HgN/A
8:50 PM48 °FPassing clouds.8 mph76%30.12 "HgN/A
8:20 PM50 °FPassing clouds.9 mph76%30.12 "HgN/A
7:50 PM50 °FPassing clouds.9 mph76%30.12 "HgN/A
7:20 PM52 °FScattered clouds.10 mph72%30.12 "HgN/A
6:50 PM52 °FScattered clouds.8 mph82%30.12 "HgN/A
5:50 PM52 °FScattered clouds.10 mph82%30.12 "HgN/A
5:20 PM52 °FScattered clouds.12 mph88%30.12 "HgN/A
4:50 PM52 °FScattered clouds.13 mph82%30.12 "HgN/A
4:20 PM52 °FPassing clouds.13 mph88%30.12 "HgN/A
3:50 PM52 °FScattered clouds.15 mph88%30.12 "HgN/A
3:20 PM52 °FPassing clouds.13 mph88%30.12 "HgN/A
2:50 PM52 °FScattered clouds.13 mph88%30.12 "HgN/A
2:20 PM52 °FPartly sunny.13 mph88%30.12 "Hg6 mi
Weather by CustomWeather, © 2014

See weather overview